EDT,Max TemperatureF,Mean TemperatureF,Min TemperatureF,Max Dew PointF,MeanDew PointF,Min DewpointF,Max Humidity, Mean Humidity, Min Humidity, Max Sea Level PressureIn, Mean Sea Level PressureIn, Min Sea Level PressureIn, Max VisibilityMiles, Mean VisibilityMiles, Min VisibilityMiles, Max Wind SpeedMPH, Mean Wind SpeedMPH, Max Gust SpeedMPH,PrecipitationIn, CloudCover, Events, WindDirDegrees
2013-6-1,86,76,66,67,65,63,93,72,51,30.10,30.05,29.99,10,10,10,14,6,18,T,3,,166
2013-6-2,86,78,69,71,68,64,97,78,58,29.99,29.93,29.86,10,9,1,26,5,33,0.35,5,Rain-Thunderstorm,191
2013-6-3,85,77,69,70,68,64,97,74,51,29.97,29.92,29.86,10,10,9,13,3,17,T,5,Rain,306
2013-6-4,88,77,65,68,65,63,93,68,43,30.00,29.97,29.94,10,10,7,9,2,14,0.00,2,,334
2013-6-5,86,77,67,71,68,63,97,76,55,30.04,29.97,29.88,10,8,5,18,5,26,1.38,6,Rain,96
2013-6-6,80,75,70,70,68,66,97,82,67,29.95,29.86,29.74,10,10,8,12,4,16,0.01,6,Rain,173
2013-6-7,84,76,68,69,67,63,97,78,58,29.89,29.78,29.69,10,9,2,23,4,35,0.31,6,Rain-Thunderstorm,262
2013-6-8,83,76,68,69,66,64,93,74,55,30.06,29.97,29.86,10,6,4,9,2,12,0.00,6,,257
2013-6-9,82,75,67,72,69,65,97,82,67,30.12,30.05,30.00,10,7,2,18,4,26,0.43,4,Rain-Thunderstorm,178
2013-6-10,79,73,67,72,68,63,97,85,73,30.06,30.01,29.94,10,9,2,20,6,26,0.28,6,Rain,208
2013-6-11,90,81,72,73,71,69,93,73,52,30.06,30.01,29.96,10,9,6,17,7,22,0.00,4,,249
2013-6-12,92,82,72,75,73,71,93,76,59,30.05,30.01,29.96,10,9,5,13,3,17,T,0,,298
2013-6-13,92,83,74,74,70,67,88,66,44,29.96,29.89,29.75,10,9,7,14,7,24,0.00,1,,248
2013-6-14,86,77,67,65,61,56,84,62,40,29.99,29.93,29.89,10,10,10,13,3,18,0.00,1,,342
2013-6-15,85,74,62,64,61,57,93,67,40,30.11,30.07,30.01,10,10,8,13,4,17,0.00,2,,133
2013-6-16,88,75,62,70,66,61,93,70,46,30.14,30.08,30.01,10,9,2,23,5,31,0.88,2,Rain,200
2013-6-17,86,78,69,75,69,66,93,77,61,30.12,30.02,29.94,10,7,0,15,4,20,1.41,6,Fog-Rain,226
2013-6-18,85,77,69,72,69,66,100,81,61,29.99,29.92,29.85,10,9,2,16,6,28,0.19,5,Rain,219
2013-6-19,84,76,68,69,67,65,90,74,58,30.07,29.98,29.91,10,10,10,9,2,13,0.00,4,,317
2013-6-20,85,75,65,67,64,60,93,69,44,30.19,30.13,30.07,10,9,5,14,5,18,0.00,1,,78
2013-6-21,86,75,64,66,63,59,100,70,40,30.23,30.18,30.14,10,9,5,14,4,17,0.00,1,,65
2013-6-22,86,78,70,67,62,58,84,63,42,30.23,30.16,30.08,10,10,10,9,3,14,0.00,1,,66
2013-6-23,85,76,66,70,67,64,93,74,55,30.21,30.15,30.09,10,9,6,9,3,13,T,4,,148
2013-6-24,86,78,69,71,69,66,97,76,55,30.24,30.17,30.12,10,10,6,16,4,22,0.01,4,Rain,215
2013-6-25,87,78,68,72,70,67,97,78,59,30.16,30.11,30.04,10,9,2,13,2,21,0.12,3,Rain,225
2013-6-26,90,81,71,74,71,67,94,72,50,30.11,30.02,29.93,10,8,2,14,5,23,0.09,3,Rain,226
2013-6-27,88,81,73,74,72,68,93,76,59,29.98,29.90,29.82,10,9,1,22,8,30,0.40,3,Rain-Thunderstorm,249
2013-6-28,91,81,70,74,71,65,93,70,46,29.87,29.77,29.66,10,9,5,17,6,24,0.43,2,,260
2013-6-29,88,80,72,72,70,63,93,69,45,29.76,29.72,29.65,10,8,1,18,5,22,0.01,6,Rain,227
2013-6-30,87,78,68,69,66,60,97,71,44,29.79,29.74,29.70,10,8,1,12,3,15,0.00,4,,197